Hourly Data Report for January 05, 2022

ST. JOHN'S INTL A
NEWFOUNDLAND
Current Station Operator: NAVCAN

47°37'07.000" N
52°45'09.000" W
140.50 m
8403505
71801
YYT

Download Data

Hourly Data (January 2022)
Hourly Data Report for January 5, 2022
TIME
LST
Temp Definition
°C
Dew Point Definition
°C
Rel Hum Definition
%
Precip. Amount Definition
mm

Wind Dir Definition
10's deg

Wind Spd Definition
km/h
Visibility Definition
km
Stn Press Definition
kPa
Hmdx Definition


Wind Chill Definition


Weather Definition


00:30 -13.1 -16.4 77   31 53 4.8 99.49   -26 Blowing Snow
01:30 -12.7 -16.1 76   31 57 3.2 99.70   -26 Blowing Snow
02:30 -11.4 -14.4 79   30 52 9.7 99.93   -24 Blowing Snow
03:30 -10.7 -14.3 75   30 41 24.1 100.07   -22 Blowing Snow
04:30 -9.5 -13.4 73   29 41 24.1 100.16   -20 Blowing Snow
05:30 -8.7 -13.0 71   29 40 24.1 100.26   -19 Blowing Snow
06:30 -8.0 -12.9 68   29 35 24.1 100.35   -18 Blowing Snow
07:30 -7.7 -13.1 65   29 33 24.1 100.43   -17 Blowing Snow
08:30 -7.3 -12.3 68   27 22 24.1 100.55   -15 Mainly Clear
09:30 -6.6 -11.5 69   27 17 24.1 100.61   -13 LegendNANA
10:30 -5.4 -9.6 73   26 21 24.1 100.71   -12 Snow Showers
11:30 -5.2 -7.8 82   24 22 4.8 100.67   -12 Snow Showers
12:30 -3.5 -6.4 80   26 22 24.1 100.62   -10 LegendNANA
13:30 -2.2 -6.7 71   27 46 24.1 100.56   -11 Blowing Snow
14:30 -1.7 -6.8 68   27 38 24.1 100.64   -9 Blowing Snow
15:30 -2.0 -6.1 74   26 32 24.1 100.76   -9 LegendNANA
16:30 -2.6 -6.8 73   26 29 24.1 100.84   -10 LegendNANA
17:30 -2.7 -6.2 77   25 32 24.1 100.85   -10 Mainly Clear
18:30 -1.6 -4.7 80   24 27 24.1 100.86   -8 LegendNANA
19:30 -1.0 -4.4 78   24 23 24.1 100.86   -7 LegendNANA
20:30 -0.6 -3.2 82   22 25 24.1 100.80   -7 Mostly Cloudy
21:30 0.3 -2.8 80   25 40 24.1 100.78     LegendNANA
22:30 0.4 -2.5 81   23 31 24.1 100.69     LegendNANA
23:30 1.1 -1.6 82   23 39 24.1 100.64     Mostly Cloudy

Notes on Data Quality.

Legend

  • E = Estimated
  • M = Missing
  • NA = Not Available*
  • [empty] = Indicates an unobserved value
Date modified: